RH
6 6 5 6 5 5 5 5 5 5 5 5 5 5 5 6 8 6 4 5 3 4 12 16 17 19 18 15 16 15 16 15 13 14 15 14 14 14 15 16 16 16 15 17 18 16 14 15 14 14 15 16 17 19 19 21 29 28 24 23 23 22 25 25 22 19 16 16 20 22 23 24 23 25 30 33 36 37 40 45 45 44 43 43 55 58 37
5 5 5 4 5 5 5 5 5 5 4 4 4 4 5 5 6 5 5 6 4 7 13 15 18 20 16 15 16 14 13 13 14 15 16 16 16 15 16 16 14 15 17 18 18 15 13 13 14 14 16 17 19 20 19 21 27 26 23 24 23 22 25 26 24 23 19 16 17 19 21 23 21 23 29 33 34 37 41 44 46 48 44 41 55 55 37
4 4 4 4 4 4 4 4 4 4 4 4 4 4 4 5 5 4 5 5 5 9 12 13 19 22 18 16 17 16 13 14 16 16 15 16 17 15 15 15 16 18 19 19 20 18 14 13 16 16 16 19 22 22 20 22 27 27 26 26 24 24 26 26 26 28 27 25 25 22 22 24 22 21 26 30 32 36 40 43 48 51 46 42 48 50 43
4 4 4 4 4 4 4 4 4 4 4 4 5 5 4 5 6 6 6 5 6 9 9 10 16 20 19 17 16 16 14 13 16 17 15 15 16 15 16 15 16 18 20 21 23 22 19 18 19 19 19 21 23 24 24 25 26 26 26 26 26 29 28 27 27 29 28 27 25 25 27 29 27 25 25 29 35 38 40 46 50 52 51 47 44 49 57
4 4 4 4 4 4 4 4 4 4 4 4 5 4 4 7 10 10 9 6 8 11 10 10 13 15 16 15 14 16 17 14 15 15 14 15 16 16 16 17 18 20 20 21 21 22 23 21 19 19 22 25 24 24 27 28 27 27 27 27 28 29 28 28 30 28 26 26 25 26 29 31 29 30 32 33 37 39 40 46 49 51 59 59 52 56 70
4 4 4 4 4 4 4 4 4 4 4 4 4 5 6 8 10 10 9 8 11 14 12 11 13 14 17 18 18 19 19 16 15 14 14 16 15 14 15 17 21 24 22 19 18 20 22 21 19 20 24 26 26 26 29 29 28 28 29 30 29 26 27 30 31 29 26 27 28 27 29 31 30 33 38 39 41 43 42 45 49 54 64 68 66 71 83
4 4 4 4 4 4 3 4 3 3 4 4 4 5 6 7 8 9 9 10 12 14 12 10 11 14 18 19 19 21 21 17 17 18 16 16 15 14 14 16 21 26 26 21 19 20 20 19 21 23 23 25 26 28 27 26 28 29 29 31 28 25 30 34 32 29 26 25 27 28 31 32 31 35 44 45 44 45 46 48 53 59 65 70 75 81 87
4 4 4 3 3 3 3 3 3 3 4 3 4 5 5 6 7 7 9 11 11 12 10 9 13 16 18 17 17 21 22 18 18 20 17 16 16 16 16 19 23 27 27 23 20 19 19 18 21 23 24 26 29 28 25 26 31 32 30 31 27 24 29 34 32 29 23 21 24 27 30 32 33 38 44 42 40 42 46 52 57 62 69 74 78 84 86
4 4 3 3 3 3 3 4 4 4 5 4 5 5 5 6 6 6 9 12 12 11 9 11 18 20 18 16 16 19 21 20 19 19 18 17 17 17 18 21 25 27 25 22 21 20 20 21 23 23 24 26 27 26 26 30 34 35 34 34 30 29 31 33 33 31 24 19 21 26 28 29 34 41 41 41 45 49 53 61 67 71 80 86 89 93 91
4 3 3 3 3 4 4 4 5 5 5 5 5 6 5 6 7 5 8 12 12 12 12 14 17 16 15 18 18 17 19 21 19 16 16 18 17 18 19 20 24 26 22 18 19 20 21 23 25 26 27 28 28 28 31 33 34 36 37 36 33 34 32 32 35 34 26 20 22 27 27 26 36 47 49 50 55 57 58 63 68 75 88 97 98 94 87
4 3 4 4 4 5 5 5 5 6 6 6 6 7 6 6 6 5 8 11 11 12 15 18 17 15 15 18 20 19 19 20 17 14 15 17 17 18 19 19 22 24 20 17 18 20 22 24 27 28 29 32 33 32 34 35 35 36 35 34 36 37 34 35 39 38 32 26 27 29 27 28 39 51 55 57 61 65 67 66 70 81 90 91 90 85 79
4 4 4 5 5 5 5 6 6 6 7 6 6 7 6 6 6 5 7 12 13 12 16 19 18 16 16 16 17 18 17 16 16 15 15 15 16 18 19 19 19 20 19 18 19 21 23 23 27 30 32 35 37 37 37 39 38 36 34 32 35 38 36 37 40 42 38 34 34 35 33 35 48 55 55 56 59 63 68 66 70 82 85 81 81 78 70
5 5 5 5 6 6 6 7 6 7 8 7 7 8 7 6 6 6 7 12 15 15 15 16 16 16 16 15 14 15 15 15 15 14 14 14 15 17 18 18 18 18 18 19 21 23 24 26 29 30 30 32 35 35 38 40 39 37 37 35 34 37 38 38 41 44 40 35 38 42 36 38 49 54 52 55 58 64 72 70 67 73 79 79 74 63 51
5 5 6 6 6 7 7 7 7 7 8 8 8 8 7 7 7 7 7 11 17 17 14 13 15 16 15 15 15 15 15 14 14 14 14 15 16 16 17 18 18 17 19 21 21 22 25 29 31 29 27 29 29 27 27 33 37 39 39 36 36 37 39 39 40 43 42 41 45 44 39 41 50 54 57 65 70 73 79 78 72 71 72 66 55 46 42
5 6 6 6 6 7 7 7 8 8 8 8 8 8 8 8 9 8 7 10 17 18 15 14 16 16 16 16 16 17 17 17 18 16 14 15 16 17 18 18 17 18 20 21 24 28 29 28 28 27 26 26 25 22 20 23 32 37 39 38 36 35 38 41 42 43 46 50 55 55 54 56 60 63 67 72 73 70 72 74 71 63 55 47 43 45 42
6 6 6 6 6 6 8 8 8 8 8 9 8 8 9 9 9 10 8 8 13 16 15 15 16 17 17 16 16 17 19 20 21 19 18 19 17 16 17 18 17 19 19 21 27 33 32 29 26 27 26 24 23 24 22 21 25 30 34 37 37 36 40 43 45 49 53 58 64 65 63 63 67 70 70 71 71 67 66 67 62 51 44 43 43 42 37
6 6 6 6 6 6 7 8 8 9 9 9 9 9 10 10 9 10 9 8 12 16 16 16 17 18 17 18 18 18 20 21 21 19 20 21 18 16 18 18 18 19 21 24 31 35 34 32 30 29 30 29 26 25 25 25 25 26 28 32 35 41 46 48 49 54 58 63 67 65 62 65 70 69 69 70 67 62 65 71 65 51 45 42 38 36 35
6 6 6 6 5 6 7 7 8 9 9 10 10 10 10 11 10 11 10 9 12 17 18 16 17 18 17 18 19 19 20 22 21 20 21 21 18 18 20 19 19 21 23 27 33 35 33 32 31 29 31 32 29 26 28 29 27 27 28 29 33 40 45 48 51 54 57 63 66 63 63 68 68 66 67 66 62 62 71 75 65 51 43 38 34 36 38
6 6 6 6 6 6 7 8 9 9 9 10 10 10 11 11 11 11 11 10 12 18 20 18 17 19 17 18 19 19 19 20 20 22 26 24 17 18 22 22 22 25 26 28 33 34 31 32 33 31 32 35 33 28 29 31 30 29 31 34 40 46 47 49 54 57 58 61 64 65 65 65 67 67 64 61 64 72 72 60 48 41 39 36 34 37 40
6 6 5 5 5 5 6 8 9 9 10 10 10 11 11 12 12 12 12 12 13 18 20 18 17 18 17 17 18 17 18 19 18 20 25 22 18 21 25 24 24 27 29 30 33 33 31 33 34 32 32 35 34 29 29 33 34 33 35 42 49 52 54 57 60 60 60 62 66 74 75 70 69 70 64 60 66 67 55 42 36 34 34 36 37 38 43
6 5 5 4 5 5 6 8 9 9 10 10 10 11 12 12 12 13 14 13 14 18 21 19 17 17 16 15 16 15 16 18 18 19 21 21 20 22 24 23 25 31 33 32 33 34 33 34 35 34 33 33 33 32 32 34 35 35 37 42 48 51 57 64 65 63 68 73 75 77 79 74 68 64 60 57 53 43 34 32 32 31 33 37 40 41 44
6 5 5 4 4 4 6 7 9 10 10 10 11 12 13 14 14 15 15 14 14 18 22 21 18 16 15 15 15 16 16 17 17 17 19 20 21 23 24 25 28 32 33 33 33 35 36 36 36 34 33 34 34 35 36 35 36 37 37 40 47 51 54 61 64 62 64 68 67 65 66 63 54 45 42 39 32 26 27 30 30 31 35 40 44 47 51
6 5 5 4 4 4 5 7 9 10 10 11 12 13 14 14 15 16 16 16 16 20 22 21 18 17 16 15 16 16 16 17 17 17 18 21 22 24 27 29 30 32 34 35 34 33 35 38 36 33 33 36 35 35 37 37 37 39 40 41 47 50 48 52 59 58 53 51 51 50 49 44 36 31 30 28 25 25 28 29 30 33 36 42 50 58 63
6 5 5 5 4 4 6 7 9 10 11 11 12 14 15 15 15 16 17 17 18 21 24 22 19 18 18 17 17 17 17 17 18 18 19 21 23 25 29 30 31 33 36 36 35 34 35 36 35 33 33 35 34 34 39 40 38 39 42 42 43 44 43 46 51 53 52 50 46 42 38 33 29 28 27 25 24 26 28 28 29 31 36 46 57 66 72
6 5 5 5 5 5 6 7 9 10 12 12 13 14 15 15 16 17 18 19 18 21 25 25 22 21 21 19 19 19 18 19 20 20 21 23 25 27 30 32 32 33 34 34 36 37 36 36 36 36 35 34 33 35 39 40 38 40 46 49 48 47 45 47 49 50 52 51 43 36 32 27 23 24 24 23 25 27 27 26 28 33 42 51 60 70 79
6 6 5 5 5 6 6 8 9 10 12 13 14 15 15 15 16 16 18 19 18 19 25 28 25 23 23 21 20 20 20 21 22 23 23 25 27 28 30 32 33 33 33 35 36 37 38 37 37 38 37 34 32 34 38 39 41 46 50 54 55 53 51 51 51 50 49 44 36 31 30 25 22 24 26 25 28 31 29 28 32 40 50 56 60 68 80
6 6 5 6 6 6 7 8 10 11 12 14 15 16 16 15 16 16 18 19 19 20 25 28 27 24 24 23 22 21 22 23 24 25 26 27 28 30 32 32 32 32 33 35 37 37 37 37 36 36 36 34 32 34 36 39 44 49 53 53 54 54 55 55 54 49 44 37 31 32 36 34 30 29 30 29 31 34 33 34 41 50 57 63 66 68 74
6 6 6 6 6 6 7 8 10 11 13 14 15 15 16 16 16 17 18 18 18 19 23 26 27 26 26 25 23 23 23 24 25 26 28 29 31 32 33 33 33 33 34 35 36 36 36 35 34 34 33 33 33 35 37 40 45 50 53 54 54 55 59 59 51 42 35 31 29 32 38 37 33 32 33 33 33 36 40 47 57 63 67 72 76 77 77
6 6 6 6 6 6 7 9 11 12 13 14 15 15 16 17 16 17 18 18 19 19 22 26 28 28 27 26 25 25 25 25 26 28 29 32 33 34 34 34 34 34 36 37 37 36 36 35 34 34 33 33 34 36 40 46 52 54 52 51 52 54 56 52 41 32 30 29 29 31 35 36 34 33 34 33 34 40 49 60 69 74 77 80 82 84 86
6 7 7 7 7 7 8 10 11 12 13 14 14 15 16 17 17 17 18 19 20 20 21 25 29 29 28 27 27 27 27 27 28 29 32 34 34 34 35 35 34 35 37 38 36 36 36 35 34 34 34 33 34 38 44 51 55 53 48 47 51 53 49 40 33 30 31 31 30 30 32 33 33 32 31 30 34 43 52 62 72 78 80 82 83 84 87
6 7 7 7 7 7 8 10 11 11 12 13 14 15 16 18 18 18 18 19 20 20 21 24 27 29 28 28 28 29 29 29 30 31 34 35 35 36 36 35 35 36 36 36 36 36 35 35 34 33 35 35 35 40 48 52 51 46 42 44 49 47 39 31 30 31 32 32 31 30 30 30 31 33 32 31 38 48 55 61 69 74 76 79 82 86 91
6 7 7 7 7 7 8 9 9 11 12 12 13 15 17 18 18 18 19 19 20 20 21 23 26 29 30 30 30 30 30 31 32 34 35 36 35 36 36 35 35 36 35 35 36 36 35 36 35 35 37 38 37 41 48 50 45 43 42 42 40 35 30 29 30 30 30 32 34 35 35 33 34 36 36 36 44 55 62 65 68 70 72 74 78 84 89
7 7 7 7 7 7 7 8 9 10 11 11 13 15 16 19 19 19 19 20 20 20 21 22 25 29 30 29 30 31 32 33 34 35 35 36 36 36 36 34 35 36 35 35 35 35 36 36 35 35 38 37 35 41 48 46 42 43 43 38 32 29 28 29 30 29 29 31 34 38 39 37 36 36 36 38 43 52 61 67 69 68 68 70 74 79 82
7 7 7 7 7 7 8 8 9 10 11 12 14 15 16 18 19 19 20 20 20 21 21 22 26 32 32 30 32 34 33 35 36 36 35 36 36 36 35 34 34 36 35 34 35 36 36 35 35 38 40 37 36 43 46 43 42 44 41 34 30 29 29 29 29 28 29 31 33 35 36 36 35 35 36 39 44 50 56 64 69 70 69 70 74 79 82
7 7 7 7 7 7 9 9 10 11 11 13 14 15 16 18 19 19 21 21 21 23 23 24 29 35 37 37 38 38 35 36 37 36 36 36 36 36 35 34 35 36 35 34 36 37 36 35 36 40 41 40 43 47 46 41 40 40 35 31 31 31 31 30 30 29 29 31 33 33 33 34 35 35 38 44 50 54 59 64 68 72 74 75 76 79 83
7 7 6 7 7 8 9 10 10 11 12 13 15 15 17 18 18 20 21 22 22 24 25 27 33 38 38 39 40 38 36 38 38 37 37 38 37 35 36 36 36 36 34 34 36 37 36 35 37 41 43 44 45 46 43 40 38 35 32 32 33 32 32 33 32 31 31 32 32 31 33 35 35 36 41 48 53 56 61 65 69 73 77 80 82 84 85
7 7 7 7 8 8 9 10 11 12 12 14 15 16 18 19 19 20 22 23 24 25 25 29 37 41 41 40 40 38 38 41 40 38 38 40 38 36 35 37 37 36 35 37 38 35 33 35 40 43 45 44 42 40 39 38 36 33 33 34 34 33 33 34 33 33 34 34 33 32 34 37 38 40 45 51 56 59 62 66 73 79 83 86 88 89 89
7 7 7 7 8 8 9 11 11 12 13 14 16 17 18 19 20 22 23 25 27 27 27 30 36 43 44 42 40 39 41 42 41 39 40 40 38 36 35 37 37 36 36 40 38 34 34 40 45 46 45 43 41 40 38 35 33 33 35 35 34 34 35 35 34 36 39 41 40 41 43 45 46 47 52 57 61 63 64 67 74 81 86 88 90 90 91
7 7 7 8 8 8 10 11 11 12 13 15 16 17 18 19 21 24 26 27 28 30 31 32 36 41 44 43 41 41 42 43 43 44 44 42 39 37 37 40 39 38 39 40 37 33 35 41 45 48 47 44 41 39 36 33 33 34 35 35 34 35 35 35 35 38 41 43 43 44 47 51 53 55 59 63 64 64 64 67 71 77 83 86 88 90 91
7 7 8 8 8 9 10 10 12 13 14 15 16 17 18 20 23 25 28 33 35 34 33 34 37 40 42 43 44 44 42 42 45 47 46 44 41 40 41 41 39 39 43 44 39 36 37 40 44 49 47 41 37 36 35 33 34 34 34 35 35 34 35 35 36 38 39 39 40 41 42 45 49 54 60 66 67 66 66 67 69 75 82 86 88 90 92
7 8 8 8 8 9 10 11 13 13 14 15 17 19 21 23 25 27 30 34 37 36 34 35 38 40 41 43 45 45 43 44 47 48 48 47 44 42 42 42 39 39 43 44 41 40 41 42 46 49 45 37 35 36 34 34 35 35 35 35 35 34 34 34 34 36 37 38 39 39 39 40 45 51 58 64 67 67 69 70 70 73 80 86 90 91 92
7 8 8 8 8 9 10 12 13 13 14 16 18 22 26 27 27 29 31 33 35 35 34 36 40 42 43 43 44 44 45 46 48 49 50 49 44 42 45 47 44 40 39 41 42 42 43 45 49 49 42 35 35 36 34 34 36 36 36 36 35 34 35 36 34 35 37 38 40 40 39 40 44 50 58 65 66 65 68 72 72 73 77 84 90 92 92
8 8 8 8 9 10 12 13 12 14 19 22 20 21 26 29 29 31 34 36 37 36 35 37 42 44 44 44 45 46 48 49 48 47 47 46 44 46 50 51 46 39 38 42 45 44 43 46 49 47 39 35 36 37 35 36 37 36 36 36 35 34 35 36 35 35 35 38 39 39 39 40 44 48 54 61 64 64 66 70 73 74 76 80 86 90 92
8 8 8 9 10 11 12 14 14 14 19 23 23 22 24 27 30 33 34 35 37 36 35 40 46 47 46 47 48 49 51 51 49 47 46 45 47 51 52 50 46 41 40 46 50 46 43 45 46 42 38 37 37 37 36 37 38 37 36 35 34 34 36 36 35 35 36 38 39 39 39 40 43 44 46 53 61 66 68 69 71 72 74 78 83 88 92
9 9 8 9 11 12 13 16 17 17 19 24 28 30 29 28 32 36 36 34 35 36 37 42 48 48 48 49 50 51 53 52 49 48 48 47 49 51 50 48 48 48 47 50 52 46 42 43 43 39 38 39 38 37 38 39 39 39 38 35 34 35 37 37 36 36 38 40 41 42 41 42 43 44 46 51 60 66 69 71 73 72 72 75 80 84 89
9 9 9 10 13 14 15 18 20 21 23 26 29 32 32 30 31 34 34 34 35 37 40 45 49 50 49 50 50 51 54 53 50 50 50 48 49 50 46 44 48 52 49 48 49 47 44 43 42 40 39 40 39 38 40 41 40 39 39 37 37 37 39 38 36 37 39 40 42 44 43 43 44 46 48 52 59 64 66 71 76 77 74 76 81 85 90
10 10 10 12 15 16 17 19 21 22 25 27 26 26 27 28 29 31 34 36 37 39 44 49 52 51 52 53 51 52 55 55 52 50 49 48 49 52 49 46 51 54 50 47 49 51 49 45 43 41 40 40 40 40 41 41 40 39 38 38 38 39 38 37 37 38 40 41 43 45 45 44 46 49 50 52 58 64 66 69 76 79 78 78 82 87 92
11 11 12 14 16 17 18 20 21 23 25 27 26 26 27 28 29 32 35 37 39 42 48 53 54 53 53 54 52 52 55 53 50 49 50 50 50 52 50 49 52 55 54 52 53 52 48 44 42 42 41 41 41 42 43 42 41 39 38 39 40 40 38 37 38 40 42 42 43 45 47 48 51 54 53 51 55 61 65 69 75 79 78 77 79 83 89
13 13 14 16 18 19 19 20 22 23 25 26 27 28 29 29 31 34 37 39 42 47 53 56 56 55 54 53 53 54 55 53 51 51 52 54 55 56 53 50 51 54 53 52 51 49 46 44 43 43 42 42 43 44 43 42 40 39 39 41 41 39 37 38 40 42 43 42 41 43 46 49 53 55 54 51 52 58 65 72 77 80 79 77 76 79 87
14 15 16 17 19 20 20 21 23 25 26 26 27 29 30 31 33 37 39 42 46 51 55 57 56 55 55 55 56 56 57 57 57 54 52 54 59 58 52 49 53 57 54 50 48 47 45 44 43 43 43 44 44 44 43 41 39 38 39 41 40 37 36 38 41 43 43 42 40 40 42 46 49 53 53 52 53 57 62 70 78 82 80 77 76 78 84
15 16 17 18 18 19 20 21 23 24 25 26 27 29 32 33 36 39 41 45 51 55 56 56 57 57 56 55 54 53 53 57 61 58 53 53 58 59 54 51 54 56 53 49 48 48 45 44 44 45 45 45 45 45 44 41 38 37 38 39 38 36 35 37 40 42 43 42 40 39 39 41 43 46 49 49 50 52 52 55 64 73 76 74 74 76 82
16 16 17 18 17 18 19 20 21 22 24 26 29 32 34 36 38 41 45 50 55 57 55 56 59 59 57 54 54 54 56 59 62 61 56 53 55 57 57 55 53 52 50 49 48 47 45 45 45 45 45 46 46 45 42 39 37 37 37 37 37 36 36 37 39 42 43 43 41 40 40 39 38 39 41 42 43 47 49 51 57 66 73 74 74 76 80